Location: ??
(35.3149°N, 139.6204°E)
Time: 10:08:21
(UTC+00:00)

Cosmos 1862 Rocket - Pass Details

Date: 03 August 2024
Orbit: 599 x 630 km, 82.5° (Epoch: 09 September)

Event Time Altitude Azimuth Distance (km) Brightness Sun altitude
Rises 17:19:55 0° 351° (N) 2,855 7.5 -26.3°
Reaches altitude 10° 17:22:08 10° 351° (N) 1,946 6.6 -26.0°
Enters shadow 17:25:27 52° 340° (NNW) 746 4.0 -25.5°
